Summerland Cda, British Columbia

6:02 AM PST on February 22, 2017 (GMT -0800)
Summerland

Weather History for CWUS - July, 2013

Change the Weather History Date:

Monday, July 22, 2013

  Actual Average (CYYF) Record (CYYF)
Temperature  
Mean Temperature 78 °F -  
Max Temperature 94 °F 83 °F 100 °F (2003)
Min Temperature 61 °F 56 °F 51 °F (1999)
Cooling Degree Days 12    
Growing Degree Days 28 (Base 50)    
Moisture  
Dew Point 45 °F    
Average Humidity 31    
Maximum Humidity 53    
Minimum Humidity 6    
Precipitation  
Precipitation 0.00 in - - ()
Sea Level Pressure  
Sea Level Pressure 29.83 in    
Wind  
Wind Speed 4 mph ()    
Max Wind Speed 10 mph    
Max Gust Speed 20 mph    
Averages and records for this station are not official NWS values.
T = Trace of Precipitation, MM = Missing Value Source: Averaged Metar Reports

Daily Weather History Graph

Daily Weather History Graph

Search for Another Location

Airport or City:

Trip Planner

Search our weather history database for the weather conditions in past years. The results will help you decide how hot, cold, wet, or windy it might be!

Date:

Astronomy

Jul. 22, 2013 Rise Set
Actual Time 5:16 AM PDT 8:52 PM PDT
Civil Twilight 4:36 AM PDT 9:32 PM PDT
Nautical Twilight 3:42 AM PDT 10:26 PM PDT
Astronomical Twilight 2:25 AM PDT 11:41 PM PDT
Moon 8:31 PM PDT 5:26 AM PDT
Length of Visible Light 16h 55m
Length of Day
15h 35m
Full, 100% of the Moon is Illuminated
Jul 22
Full
Jul 29
Last Quarter
Aug 6
New
Aug 14
First Quarter
Aug 20
Full

Hourly Weather History & Observations

Time (PDT) Temp. Dew Point Humidity Pressure Visibility Wind Dir Wind Speed Gust Speed Precip Events Conditions
12:00 AM 68.2 °F 42.8 °F 40% 29.76 in - West 4.6 mph - N/A   Unknown
1:00 AM 66.7 °F 42.8 °F 42% 29.77 in - West 3.5 mph - N/A   Unknown
2:00 AM 65.1 °F 42.8 °F 44% 29.78 in - West 6.9 mph - N/A   Unknown
3:00 AM 62.1 °F 43.5 °F 51% 29.79 in - WSW 3.5 mph - N/A   Unknown
4:00 AM 63.3 °F 43.9 °F 49% 29.80 in - NW 5.8 mph - N/A   Unknown
5:00 AM 62 °F 44 °F 41% 29.82 in - WNW 3.5 mph - -  
5:00 AM 61.5 °F 44.1 °F 53% 29.82 in - WNW 3.5 mph - N/A   Unknown
6:00 AM 63.3 °F 45.3 °F 52% 29.83 in - West 3.5 mph - N/A   Unknown
7:00 AM 70.2 °F 46.9 °F 43% 29.85 in - West 5.8 mph - N/A   Unknown
8:00 AM 78.6 °F 49.3 °F 36% 29.85 in - NE 2.3 mph - N/A   Unknown
9:00 AM 79.9 °F 52.2 °F 38% 29.86 in - ENE 2.3 mph - N/A   Unknown
10:00 AM 82.4 °F 50.2 °F 33% 29.86 in - ENE 4.6 mph - N/A   Unknown
11:00 AM 85 °F 52 °F 22% 29.86 in - ENE 4.6 mph - -  
11:00 AM 84.9 °F 51.6 °F 32% 29.86 in - ENE 4.6 mph - N/A   Unknown
12:00 PM 86.2 °F 51.6 °F 30% 29.85 in - ENE 5.8 mph - N/A   Unknown
1:00 PM 89.4 °F 51.1 °F 27% 29.84 in - SE 3.5 mph - N/A   Unknown
2:00 PM 90.0 °F 50.2 °F 25% 29.84 in - East 4.6 mph - N/A   Unknown
3:00 PM 90.0 °F 49.3 °F 25% 29.83 in - ESE 4.6 mph - N/A   Unknown
4:00 PM 91.8 °F 45.1 °F 20% 29.82 in - SE 3.5 mph - N/A   Unknown
5:00 PM 94 °F 34 °F 6% 29.81 in - WNW 5.8 mph - -  
5:00 PM 93.9 °F 34.2 °F 12% 29.81 in - WNW 5.8 mph - N/A   Unknown
6:00 PM 91.8 °F 40.6 °F 17% 29.81 in - NW 9.2 mph 18.4 mph N/A   Unknown
7:00 PM 89.6 °F 39.0 °F 17% 29.81 in - NW 9.2 mph 18.4 mph N/A   Unknown
8:00 PM 86.4 °F 39.9 °F 19% 29.83 in - NNW 8.1 mph - N/A   Unknown
9:00 PM 81.7 °F 41.2 °F 24% 29.86 in - NNW 5.8 mph - N/A   Unknown
10:00 PM 79.5 °F 41.9 °F 26% 29.88 in - NNW 10.4 mph 19.6 mph N/A   Unknown
11:00 PM 77 °F 42 °F 18% 29.89 in - West 6.9 mph - -  
11:00 PM 77.2 °F 42.1 °F 29% 29.89 in - West 6.9 mph - N/A   Unknown